Weather History for Thermal, CA

Change the Weather History Date:

Tuesday, February 7, 2012

  Actual Average Record
Temperature  
Mean Temperature 56 °F 57 °F  
Max Temperature 70 °F 74 °F 95 °F (1996)
Min Temperature 42 °F 40 °F 24 °F (2003)
Degree Days  
Heating Degree Days 9 9  
Month to date heating degree days 68 63  
Since 1 July heating degree days 992 923  
Cooling Degree Days 0 0  
Month to date cooling degree days 0 0  
Year to date cooling degree days 0 2  
Growing Degree Days 6 (Base 50)    
Moisture  
Dew Point 29 °F    
Average Humidity 43    
Maximum Humidity 70    
Minimum Humidity 16    
Precipitation  
Precipitation 0.00 in 0.02 in 0.33 in (1976)
Month to date precipitation 0.00 0.14  
Year to date precipitation T 0.81  
Since 1 July precipitation 0.99 2.19  
Snow  
Snow 0.00 in - - ()
Month to date snowfall 0.0  
Year to date snowfall 0.0  
Since 1 July snowfall 0.0  
Snow Depth 0.00 in    
Sea Level Pressure  
Sea Level Pressure 29.95 in    
Wind  
Wind Speed 2 mph (NNW)    
Max Wind Speed 7 mph    
Max Gust Speed 8 mph    
Visibility 10 miles    
Events      
T = Trace of Precipitation, MM = Missing Value Source: NWS Daily Summary

Daily Weather History Graph

Daily Weather History Graph

Search for Another Location

Airport:

Trip Planner

Search our weather history database for the weather conditions in past years. The results will help you decide how hot, cold, wet, or windy it might be!

Date:

Astronomy

Feb. 07, 2012 Rise Set
Actual Time 6:36 AM PST 5:21 PM PST
Civil Twilight 6:10 AM PST 5:47 PM PST
Nautical Twilight 5:41 AM PST 6:16 PM PST
Astronomical Twilight 5:12 AM PST 6:45 PM PST
Moon 5:34 PM PST (2/7) 6:10 AM PST (2/7)
Length of Visible Light 11h 36m
Length of Day
10h 44m
Full, 100% of the Moon is Illuminated
Feb 7
Full
Feb 7
Full
Feb 14
Last Quarter
Feb 21
New
Feb 29
First Quarter

Hourly Weather History & Observations

Time (PST) Temp. Windchill Dew Point Humidity Pressure Visibility Wind Dir Wind Speed Gust Speed Precip Events Conditions
12:52 AM 52.0 °F - 35.1 °F 53% 29.98 in 10.0 mi North 3.5 mph - N/A   Clear
1:52 AM 48.0 °F - 34.0 °F 58% 29.98 in 10.0 mi Calm Calm - N/A   Clear
2:52 AM 45.0 °F - 33.1 °F 63% 29.97 in 10.0 mi Calm Calm - N/A   Clear
3:52 AM 43.0 °F 41.3 °F 33.1 °F 68% 29.97 in 10.0 mi North 3.5 mph - N/A   Clear
4:52 AM 48.0 °F - 30.0 °F 50% 29.96 in 10.0 mi West 3.5 mph - N/A   Clear
5:52 AM 48.0 °F - 30.9 °F 52% 29.96 in 10.0 mi NW 3.5 mph - N/A   Clear
6:52 AM 45.0 °F 43.5 °F 30.0 °F 56% 29.97 in 10.0 mi North 3.5 mph - N/A   Clear
7:52 AM 51.1 °F - 30.9 °F 46% 29.99 in 10.0 mi Calm Calm - N/A   Clear
8:52 AM 57.0 °F - 30.9 °F 37% 29.99 in 10.0 mi Calm Calm - N/A   Clear
9:52 AM 59.0 °F - 36.0 °F 42% 30.01 in 10.0 mi WSW 4.6 mph - N/A   Clear
10:52 AM 63.0 °F - 28.0 °F 27% 29.98 in 10.0 mi Calm Calm - N/A   Clear
11:52 AM 64.9 °F - 30.9 °F 28% 29.94 in 10.0 mi West 5.8 mph - N/A   Clear
12:52 PM 69.1 °F - 23.0 °F 18% 29.92 in 10.0 mi North 3.5 mph - N/A   Clear
1:52 PM 69.1 °F - 23.0 °F 18% 29.92 in 10.0 mi North 3.5 mph - N/A   Clear
2:52 PM 69.1 °F - 21.0 °F 16% 29.91 in 10.0 mi Calm Calm - N/A   Clear
3:52 PM 68.0 °F - 26.1 °F 21% 29.90 in 10.0 mi WNW 4.6 mph - N/A   Clear
4:52 PM 64.9 °F - 28.9 °F 26% 29.91 in 10.0 mi NNW 3.5 mph - N/A   Mostly Cloudy
5:52 PM 61.0 °F - 30.0 °F 31% 29.91 in 10.0 mi NW 4.6 mph - N/A   Mostly Cloudy
6:52 PM 60.1 °F - 27.0 °F 28% 29.93 in 10.0 mi Calm Calm - N/A   Clear
7:52 PM 57.9 °F - 28.9 °F 33% 29.94 in 10.0 mi Calm Calm - N/A   Mostly Cloudy
8:52 PM 59.0 °F - 30.0 °F 33% 29.95 in 10.0 mi North 4.6 mph - N/A   Clear
9:52 PM 57.9 °F - 28.9 °F 33% 29.94 in 10.0 mi North 4.6 mph - N/A   Partly Cloudy
10:52 PM 55.9 °F - 28.9 °F 36% 29.95 in 10.0 mi NNW 5.8 mph - N/A   Mostly Cloudy
11:52 PM 60.1 °F - 27.0 °F 28% 29.95 in 10.0 mi North 5.8 mph - N/A   Overcast